Location: Shepherdstown, WV
(39.4326°N, 77.8042°W)
Time: 03:58:41
(UTC-04:00)

Vanguard 3 - Pass Details

Date: 04 August 2021
Orbit: 510 x 3260 km, 33.3° (Epoch: 21 September)

Event Time Altitude Azimuth Distance (km) Brightness Sun altitude
Rises 18:44:19 0° 248° (WSW) 5,071 12.3 16.9°
Reaches altitude 10° 18:47:08 10° 246° (WSW) 4,382 12.0 16.4°
Maximum altitude 19:00:12 67° 167° (SSE) 2,912 10.1 13.9°
Drops below altitude 10° 19:19:34 10° 91° (E) 6,199 11.1 10.3°
Sets 19:24:27 0° 89° (E) 7,200 11.3 9.3°
